When you browse on this site, cookies collect data to enhance your experience and personalize the content and advertising you see.
Visit our Privacy Policy to learn more. By continuing to use the site, you agree to this use of cookies and data.
  • In Deutschland
  • Länderverzeichnis
  • Für 7 Tage
  • Wassertemperatur
  • Wetterkarte
  • Widgets
  • user-avatar
    Anmelden

    Stündliche Wetter Nowinki

    Heute, 2 Juni, Dienstag

    Zeit Temperatur Niederschläge Wind Luftdruck Luftfeuchtigkeit
    00:00 +10°C° 1 mm 2 m/S 752 mmHg 87%
    01:00 +9°C° 1 mm 2 m/S 751 mmHg 90%
    02:00 +9°C° 0.1 mm 2 m/S 751 mmHg 91%
    03:00 +9°C° 0.1 mm 2 m/S 751 mmHg 92%
    04:00 +8°C° 0.1 mm 3 m/S 751 mmHg 93%
    05:00 +9°C° 0 mm 3 m/S 751 mmHg 87%
    06:00 +10°C° 0 mm 4 m/S 751 mmHg 82%
    07:00 +12°C° 0 mm 4 m/S 751 mmHg 76%
    08:00 +13°C° 0 mm 5 m/S 751 mmHg 68%
    09:00 +14°C° 0 mm 5 m/S 750 mmHg 61%
    10:00 +15°C° 0 mm 6 m/S 750 mmHg 53%
    11:00 +16°C° 0 mm 6 m/S 750 mmHg 53%
    12:00 +16°C° 0 mm 6 m/S 749 mmHg 52%
    13:00 +17°C° 0 mm 6 m/S 749 mmHg 51%
    14:00 +17°C° 0.2 mm 6 m/S 749 mmHg 54%
    15:00 +17°C° 0.2 mm 6 m/S 748 mmHg 56%
    16:00 +16°C° 0.2 mm 5 m/S 748 mmHg 58%
    17:00 +15°C° 0.2 mm 5 m/S 747 mmHg 63%
    18:00 +14°C° 0.2 mm 4 m/S 747 mmHg 68%
    19:00 +13°C° 0.2 mm 4 m/S 747 mmHg 73%
    20:00 +12°C° 0 mm 3 m/S 747 mmHg 77%
    21:00 +11°C° 0 mm 3 m/S 747 mmHg 80%
    22:00 +10°C° 0 mm 3 m/S 747 mmHg 83%
    23:00 +9°C° 0 mm 3 m/S 746 mmHg 86%

    Morgen, 3 Juni, Mittwoch

    Zeit Temperatur Niederschläge Wind Luftdruck Luftfeuchtigkeit
    00:00 +9°C° 0 mm 3 m/S 746 mmHg 88%
    01:00 +8°C° 0 mm 3 m/S 746 mmHg 91%
    02:00 +8°C° 0 mm 3 m/S 746 mmHg 91%
    03:00 +8°C° 0 mm 3 m/S 745 mmHg 91%
    04:00 +7°C° 0 mm 3 m/S 745 mmHg 91%
    05:00 +9°C° 0 mm 3 m/S 745 mmHg 86%
    06:00 +10°C° 0 mm 3 m/S 745 mmHg 81%
    07:00 +12°C° 0 mm 3 m/S 745 mmHg 76%
    08:00 +12°C° 0.2 mm 3 m/S 745 mmHg 77%
    09:00 +12°C° 0.2 mm 4 m/S 744 mmHg 77%
    10:00 +12°C° 0.2 mm 4 m/S 744 mmHg 77%
    11:00 +12°C° 0.2 mm 4 m/S 744 mmHg 78%
    12:00 +12°C° 0.2 mm 3 m/S 744 mmHg 78%
    13:00 +12°C° 0.2 mm 3 m/S 743 mmHg 78%
    14:00 +13°C° 0 mm 3 m/S 743 mmHg 73%
    15:00 +15°C° 0 mm 4 m/S 743 mmHg 68%
    16:00 +17°C° 0 mm 4 m/S 742 mmHg 63%
    17:00 +16°C° 0.1 mm 3 m/S 742 mmHg 68%
    18:00 +14°C° 0.1 mm 3 m/S 742 mmHg 73%
    19:00 +14°C° 0.1 mm 2 m/S 742 mmHg 78%
    20:00 +13°C° 0 mm 2 m/S 742 mmHg 82%
    21:00 +12°C° 0 mm 2 m/S 742 mmHg 85%
    22:00 +10°C° 0 mm 2 m/S 742 mmHg 89%
    23:00 +9°C° 0 mm 2 m/S 742 mmHg 90%

    übermorgen, 4 Juni, Donnerstag

    Zeit Temperatur Niederschläge Wind Luftdruck Luftfeuchtigkeit
    00:00 +9°C° 0 mm 2 m/S 742 mmHg 91%
    01:00 +9°C° 0 mm 2 m/S 742 mmHg 92%
    02:00 +8°C° 0 mm 2 m/S 741 mmHg 93%
    03:00 +9°C° 0 mm 1 m/S 741 mmHg 93%
    04:00 +9°C° 0 mm 1 m/S 741 mmHg 94%
    05:00 +11°C° 0 mm 1 m/S 741 mmHg 89%
    06:00 +12°C° 0 mm 2 m/S 741 mmHg 83%
    07:00 +14°C° 0 mm 2 m/S 741 mmHg 78%
    08:00 +15°C° 0 mm 2 m/S 741 mmHg 71%
    09:00 +17°C° 0 mm 2 m/S 740 mmHg 64%
    10:00 +18°C° 0 mm 2 m/S 740 mmHg 57%
    11:00 +19°C° 0 mm 2 m/S 740 mmHg 55%
    12:00 +20°C° 0 mm 2 m/S 740 mmHg 52%
    13:00 +20°C° 0 mm 2 m/S 740 mmHg 49%
    14:00 +20°C° 0 mm 2 m/S 739 mmHg 49%
    15:00 +21°C° 0 mm 2 m/S 739 mmHg 49%
    16:00 +22°C° 0 mm 1 m/S 739 mmHg 49%
    17:00 +21°C° 0 mm 1 m/S 739 mmHg 54%
    18:00 +18°C° 0 mm 2 m/S 739 mmHg 59%
    19:00 +17°C° 0 mm 2 m/S 738 mmHg 64%
    20:00 +16°C° 0 mm 2 m/S 738 mmHg 66%
    21:00 +16°C° 0 mm 3 m/S 738 mmHg 67%
    22:00 +14°C° 0 mm 3 m/S 738 mmHg 69%
    23:00 +13°C° 0 mm 3 m/S 738 mmHg 72%

    5 Juni, Freitag

    Zeit Temperatur Niederschläge Wind Luftdruck Luftfeuchtigkeit
    00:00 +13°C° 0 mm 4 m/S 738 mmHg 75%
    01:00 +12°C° 0 mm 4 m/S 737 mmHg 78%
    02:00 +12°C° 0 mm 4 m/S 737 mmHg 82%
    03:00 +12°C° 0 mm 4 m/S 736 mmHg 86%
    04:00 +12°C° 0 mm 4 m/S 736 mmHg 91%
    05:00 +14°C° 0 mm 4 m/S 736 mmHg 88%
    06:00 +15°C° 0 mm 4 m/S 735 mmHg 86%
    07:00 +17°C° 0 mm 4 m/S 735 mmHg 84%
    08:00 +19°C° 0.1 mm 5 m/S 735 mmHg 79%
    09:00 +20°C° 0.1 mm 6 m/S 736 mmHg 73%
    10:00 +22°C° 0.1 mm 7 m/S 736 mmHg 68%
    11:00 +21°C° 0.1 mm 7 m/S 736 mmHg 67%
    12:00 +21°C° 0.1 mm 8 m/S 737 mmHg 66%
    13:00 +21°C° 0.1 mm 9 m/S 737 mmHg 66%
    14:00 +21°C° 0.1 mm 7 m/S 738 mmHg 66%
    15:00 +21°C° 0.1 mm 5 m/S 738 mmHg 66%
    16:00 +21°C° 0.1 mm 4 m/S 738 mmHg 67%
    17:00 +20°C° 0 mm 3 m/S 739 mmHg 72%
    18:00 +19°C° 0 mm 3 m/S 739 mmHg 77%
    19:00 +17°C° 0 mm 2 m/S 739 mmHg 82%
    20:00 +17°C° 0.4 mm 3 m/S 739 mmHg 84%
    21:00 +16°C° 0.4 mm 3 m/S 739 mmHg 87%
    22:00 +14°C° 0.4 mm 4 m/S 740 mmHg 90%
    23:00 +13°C° 3.4 mm 4 m/S 739 mmHg 91%

    6 Juni, Samstag

    Zeit Temperatur Niederschläge Wind Luftdruck Luftfeuchtigkeit
    00:00 +13°C° 3.4 mm 5 m/S 739 mmHg 93%
    01:00 +11°C° 3.4 mm 6 m/S 739 mmHg 94%
    02:00 +12°C° 1.7 mm 5 m/S 740 mmHg 94%
    03:00 +12°C° 1.7 mm 4 m/S 740 mmHg 94%
    04:00 +11°C° 1.7 mm 3 m/S 740 mmHg 94%
    05:00 +12°C° 0.3 mm 3 m/S 741 mmHg 92%
    06:00 +12°C° 0.3 mm 3 m/S 741 mmHg 90%
    07:00 +14°C° 0.3 mm 2 m/S 742 mmHg 87%
    08:00 +16°C° 0.1 mm 3 m/S 742 mmHg 79%
    09:00 +17°C° 0.1 mm 4 m/S 742 mmHg 71%
    10:00 +19°C° 0.1 mm 5 m/S 743 mmHg 63%
    11:00 +19°C° 0.1 mm 5 m/S 743 mmHg 61%
    12:00 +20°C° 0.1 mm 6 m/S 743 mmHg 59%
    13:00 +20°C° 0.1 mm 7 m/S 743 mmHg 57%
    14:00 +20°C° 0.1 mm 7 m/S 743 mmHg 57%
    15:00 +20°C° 0.1 mm 7 m/S 743 mmHg 57%
    16:00 +21°C° 0.1 mm 6 m/S 743 mmHg 56%
    17:00 +20°C° 0 mm 5 m/S 744 mmHg 62%
    18:00 +19°C° 0 mm 4 m/S 744 mmHg 67%
    19:00 +18°C° 0 mm 4 m/S 744 mmHg 73%
    20:00 +17°C° 0 mm 3 m/S 745 mmHg 76%
    21:00 +14°C° 0 mm 3 m/S 745 mmHg 78%
    22:00 +13°C° 0 mm 3 m/S 746 mmHg 81%
    23:00 +13°C° 0 mm 3 m/S 746 mmHg 80%

    7 Juni, Sonntag

    Zeit Temperatur Niederschläge Wind Luftdruck Luftfeuchtigkeit
    00:00 +13°C° 0 mm 3 m/S 746 mmHg 80%
    01:00 +14°C° 0 mm 2 m/S 747 mmHg 79%
    02:00 +14°C° 0 mm 2 m/S 747 mmHg 78%
    03:00 +15°C° 0 mm 2 m/S 747 mmHg 78%
    04:00 +15°C° 0 mm 2 m/S 748 mmHg 77%
    05:00 +16°C° 0 mm 3 m/S 748 mmHg 75%
    06:00 +17°C° 0 mm 3 m/S 748 mmHg 74%
    07:00 +18°C° 0 mm 3 m/S 748 mmHg 73%
    08:00 +18°C° 0 mm 3 m/S 749 mmHg 73%
    09:00 +18°C° 0 mm 3 m/S 749 mmHg 73%
    10:00 +19°C° 0 mm 3 m/S 749 mmHg 73%
    11:00 +19°C° 0 mm 3 m/S 749 mmHg 71%
    12:00 +20°C° 0 mm 2 m/S 749 mmHg 69%
    13:00 +21°C° 0 mm 2 m/S 749 mmHg 66%
    14:00 +21°C° 0.4 mm 2 m/S 748 mmHg 67%
    15:00 +21°C° 0.4 mm 2 m/S 748 mmHg 69%
    16:00 +22°C° 0.4 mm 3 m/S 748 mmHg 70%
    17:00 +20°C° 0.8 mm 2 m/S 748 mmHg 75%
    18:00 +19°C° 0.8 mm 2 m/S 748 mmHg 81%
    19:00 +19°C° 0.8 mm 1 m/S 748 mmHg 86%
    20:00 +19°C° 0.3 mm 1 m/S 748 mmHg 87%
    21:00 +18°C° 0.3 mm 1 m/S 748 mmHg 88%
    22:00 +18°C° 0.3 mm 1 m/S 748 mmHg 89%
    23:00 +18°C° 0.5 mm 1 m/S 748 mmHg 90%
    Mehr zeigen